C7607 Weather Reports


time (UTC)temp
F
wind
direction
speed
knots
gust
knots
rain 1hr
in
rain 24hr
in
rain mn
in
humidity
%
barometer
mb
20260505151545 73 99 1.7 7.8 0.00 0.00 0.00 57 1018.1
20260505124540 63 186 2.6 9.6 0.00 0.00 0.00 71 1018.2
20260505123045 62 210 2.6 8.7 0.00 0.00 0.00 73 1018.1
20260505121544 61 169 2.6 7.0 0.00 0.00 0.00 74 1018.2
20260505120041 60 205 1.7 7.0 0.00 0.00 0.00 75 1018.1
20260505114545 59 101 1.7 6.1 0.00 0.00 0.00 76 1018.0
20260505113041 58 214 0.0 4.3 0.00 0.00 0.00 80 1017.9
20260505111553 56 175 0.0 0.9 0.00 0.00 0.00 82 1017.7
20260505101545 56 0 0.0 1.7 0.00 0.00 0.00 78 1017.1
20260505100042 57 0 0.0 4.3 0.00 0.00 0.00 77 1017.0
20260505094537 57 0 0.0 3.5 0.00 0.00 0.00 77 1016.8
20260505093037 57 215 0.0 1.7 0.00 0.00 0.00 76 1016.7
20260505091554 58 224 0.0 2.6 0.00 0.00 0.00 75 1016.6
20260505090051 58 190 0.0 2.6 0.00 0.00 0.00 73 1016.6
20260505084538 59 0 0.9 4.3 0.00 0.00 0.00 72 1016.5
20260505083043 59 0 0.9 5.2 0.00 0.00 0.00 72 1016.4
20260505081557 60 0 0.9 5.2 0.00 0.00 0.00 72 1016.4
20260505080046 60 213 1.7 5.2 0.00 0.00 0.00 72 1016.4
20260505074602 60 174 0.0 5.2 0.00 0.00 0.00 72 1016.4
20260505073038 60 153 0.0 3.5 0.00 0.00 0.00 71 1016.3
20260505071544 61 204 2.6 5.2 0.00 0.00 0.00 71 1016.2
20260505070045 61 0 1.7 7.0 0.00 0.00 0.00 70 1016.1
20260505064541 61 169 0.0 5.2 0.00 0.00 0.00 70 1016.1
20260505063044 61 233 1.7 6.1 0.00 0.00 0.00 70 1016.2
20260505061606 62 232 1.7 6.1 0.00 0.00 0.00 70 1016.1
20260505060042 62 0 0.9 6.1 0.00 0.00 0.00 69 1016.2
20260505054545 62 180 1.7 5.2 0.00 0.00 0.00 69 1016.1
20260505053045 62 213 0.9 7.0 0.00 0.00 0.00 69 1016.2
20260505051543 63 0 0.9 5.2 0.00 0.00 0.00 68 1016.3
20260505041542 64 171 0.9 4.3 0.00 0.00 0.00 66 1016.2
20260505040045 65 207 0.9 6.1 0.00 0.00 0.00 65 1016.2
20260505034544 65 217 0.9 6.1 0.00 0.00 0.00 64 1016.2
20260505033050 66 223 1.7 6.1 0.00 0.00 0.00 63 1016.2
20260505031536 66 217 1.7 9.6 0.00 0.00 0.00 62 1016.2
20260505030043 67 211 1.7 7.8 0.00 0.00 0.00 61 1016.1
20260505024604 68 128 1.7 9.6 0.00 0.00 0.00 59 1016.1
20260505023050 68 172 2.6 8.7 0.00 0.00 0.00 54 1016.0
20260505021601 69 195 0.9 7.8 0.00 0.00 0.00 48 1015.9
20260505020047 70 178 1.7 7.0 0.00 0.00 0.00 46 1015.7
20260505014545 71 188 1.7 7.0 0.00 0.00 0.00 45 1015.6
20260505013049 71 294 1.7 6.1 0.00 0.00 0.00 45 1015.3
20260505011549 71 204 0.9 4.3 0.00 0.00 0.00 44 1015.2
20260505010048 72 198 1.7 3.5 0.00 0.00 0.00 43 1015.0
20260505004606 73 0 0.0 7.8 0.00 0.00 0.00 41 1014.6
20260505003043 74 236 0.9 7.0 0.00 0.00 0.00 38 1014.5
20260505001542 77 157 0.9 7.0 0.00 0.00 0.00 36 1014.4
20260505000044 78 311 0.9 5.2 0.00 0.00 0.00 34 1014.4
20260504234538 79 231 0.9 3.5 0.00 0.00 0.00 31 1014.1
20260504233055 80 200 1.7 6.1 0.00 0.00 0.00 30 1014.1
20260504231541 81 190 1.7 7.8 0.00 0.00 0.00 30 1014.1
20260504230043 79 181 1.7 8.7 0.00 0.00 0.00 32 1014.2
20260504224541 80 236 2.6 8.7 0.00 0.00 0.00 31 1014.2
20260504223053 80 257 4.3 10.4 0.00 0.00 0.00 31 1014.2
20260504221548 80 199 5.2 14.8 0.00 0.00 0.00 32 1014.2
20260504220103 81 182 3.5 8.7 0.00 0.00 0.00 32 1014.1
20260504214543 80 215 4.3 10.4 0.00 0.00 0.00 32 1014.2
20260504213103 81 208 2.6 8.7 0.00 0.00 0.00 32 1014.1
20260504211538 82 271 3.5 7.0 0.00 0.00 0.00 31 1014.2
20260504210037 81 83 1.7 7.8 0.00 0.00 0.00 33 1014.4
20260504204558 82 243 2.6 8.7 0.00 0.00 0.00 33 1014.4
20260504203043 80 242 3.5 9.6 0.00 0.00 0.00 33 1014.5
20260504201542 80 264 4.3 11.3 0.00 0.00 0.00 32 1014.6
20260504200044 81 175 4.3 7.8 0.00 0.00 0.00 32 1014.8
20260504194546 81 65 0.9 6.1 0.00 0.00 0.00 33 1014.8
20260504193042 79 227 3.5 9.6 0.00 0.00 0.00 34 1015.2
20260504191543 78 202 3.5 8.7 0.00 0.00 0.00 35 1015.4
20260504190043 77 266 4.3 8.7 0.00 0.00 0.00 36 1015.4
20260504184555 76 242 2.6 9.6 0.00 0.00 0.00 35 1015.7
20260504183037 76 236 4.3 7.8 0.00 0.00 0.00 38 1015.8
20260504181545 77 190 2.6 11.3 0.00 0.00 0.00 38 1015.9
20260504180044 76 220 1.7 10.4 0.00 0.00 0.00 37 1016.0
20260504174545 76 196 1.7 10.4 0.00 0.00 0.00 39 1016.2
20260504173036 75 281 1.7 6.1 0.00 0.00 0.00 40 1016.3
20260504171545 74 294 3.5 9.6 0.00 0.00 0.00 41 1016.6